Regional Weather Roundup
Issued by NWS Austin/San Antonio, TX

Home | Current Version | Previous Version | Text Only | Print | Product List | Glossary On
Versions: 1 2 3 4 5 6 7 8 9 10 11 12 13 14 15 16 17 18 19 20 21 22 23 24 25 26 27 28 29 30 31 32 33 34 35 36 37 38 39 40 41 42 43 44 45 46 47 48 49 50
860
ASUS44 KEWX 240711
RWREWX
SOUTH TEXAS REGIONAL WEATHER ROUNDUP
NATIONAL WEATHER SERVICE AUSTIN/SAN ANTONIO TX
200 AM CDT MON APR 24 2017

NOTE: "FAIR" INDICATED FEW OR NO CLOUDS BELOW 12,000 FEET WITH NO
SIGNIFICANT WEATHER AND/OR OBSTRUCTIONS TO VISIBILITY.

* - THESE STATIONS ARE NOT NWS OR FAA STATIONS...AND ARE NOT SUBJECT
    TO NWS AND FAA QUALITY CONTROL.

TXZ171-172-183>190-240800-
TEXAS HILL COUNTRY AND EDWARDS PLATEAU

CITY           SKY/WX    TMP DP  RH WIND       PRES   REMARKS
JUNCTION       CLOUDY    50  37  61 CALM      30.02F
*LLANO         CLEAR     45  43  93 CALM      30.05F
BURNET         CLEAR     51  40  65 CALM      30.04S
*HORSESHOE BAY   N/A     56  43  61 S5        30.02F
*KERRVILLE     CLOUDY    46  43  88 N3        30.04F
*FREDERICKSBRG CLEAR     44  40  86 CALM      30.03F
*ROCKSPRINGS   CLOUDY    52  43  71 CALM      30.04F
*BOERNE STAGE  CLEAR     43  41  93 CALM      30.05F
*CASTROVILLE   CLEAR     51  44  77 CALM      30.04F
HONDO          CLOUDY    50  45  83 N7        30.02F WCI  47
*UVALDE        CLOUDY    50  46  87 CALM      30.03F
DEL RIO        NOT AVBL
LAUGHLIN AFB   CLEAR     54  46  72 CALM      29.98F
CARRIZO SPRGS  CLEAR     55  45  67 S3        29.99F
*EAGLE PASS    NOT AVBL
$$

TXZ173-191>194-202-209-217>225-228-240800-
CENTRAL AND SOUTH CENTRAL TEXAS

CITY           SKY/WX    TMP DP  RH WIND       PRES   REMARKS
GEORGETOWN     PTCLDY    52  43  71 W3        30.03S
AUSTIN/BERGSTM CLEAR     52  47  83 W5        30.02S
AUSTIN/MABRY   PTCLDY    52  45  77 CALM      30.03S
*AUSTIN/EXEC   FAIR      54  45  71 CALM      30.03R
*LAGO VISTA    CLEAR     60  44  55 CALM      30.03S
SAN MARCOS     CLEAR     48  43  81 NW7       30.04S WCI  45
NEW BRAUNFELS  CLEAR     51  46  83 NW3       30.02S
RANDOLPH AFB   CLEAR     52  48  84 CALM      30.02F
PT SAN ANTONIO CLEAR     54  46  73 CALM      30.00F
SAN ANTONIO    PTCLDY    54  46  74 NW5       30.03F
STINSON FIELD  CLOUDY    54  46  74 CALM      30.00F
*LA GRANGE     CLEAR     55  50  83 CALM      30.00S
*GIDDINGS      CLEAR     51  47  87 CALM      30.02S
*GONZALES      CLEAR     51  49  93 CALM      30.02S
$$

TXZ163>164-176>182-195>201-210>213-226-227-235-240800-
SOUTHEAST TEXAS

CITY           SKY/WX    TMP DP  RH WIND       PRES   REMARKS
COLLEGE STN    CLEAR     54  48  80 CALM      29.99F
*BRYAN         CLEAR     49  48  95 CALM      30.00F
*CALDWELL      NOT AVBL
*CROCKETT      CLEAR     48  46  93 CALM      30.00F
*BRENHAM       CLEAR     51  50  95 CALM      30.00S
HUNTSVILLE     CLEAR     52  46  80 CALM      29.98F
CONROE         CLEAR     47  46  97 CALM      29.98F
HOUSTON BUSH   CLEAR     56  49  77 CALM      29.98S
HOUSTON HOBBY  CLEAR     57  51  80 SW6       29.98S
*HOUSTON SW AP CLEAR     51  50  93 CALM      30.00S
PEARLAND       CLEAR     57  50  77 SW3       30.00S
HOUSTON HOOKS  CLEAR     53  50  89 W3        29.99S
ELLINGTON FLD  CLEAR     59  50  72 S5        30.00
SUGAR LAND     CLEAR     54  50  86 CALM      29.98F
*HOUSTON EXEC  CLOUDY    54  50  87 CALM      30.00F
*CLEVELAND MUN CLEAR     49  48  96 CALM      29.99S
*WHARTON       CLEAR     54  49  83 CALM      30.01F
*COLUMBUS      FAIR      52  49  89 W5        30.02S
*EAGLE LAKE    SUNNY     55  52  89 CALM      30.01S
$$

TXZ214>216-236>238-240800-
THE UPPER TEXAS COAST

CITY           SKY/WX    TMP DP  RH WIND       PRES   REMARKS
*ORANGE        CLEAR     50  50  99 CALM      29.97F
PORT ARTHUR    CLEAR     54  51  90 SW6       29.96F
GALVESTON      CLEAR     65  55  70 CALM      29.99S
ANGLETON       CLEAR     53  51  93 CALM      30.00R
*BAY CITY      CLEAR     53  50  90 CALM      30.00F
PALACIOS       CLEAR     57  51  80 W3        30.01S
$$

TXZ229>234-239>247-240800-
TEXAS COASTAL BEND AND RIO GRANDE PLAINS

CITY           SKY/WX    TMP DP  RH WIND       PRES   REMARKS
VICTORIA       CLEAR     55  50  83 CALM      30.02F
*BEEVILLE      CLEAR     56  49  75 NE5       30.01F
ROCKPORT       PTCLDY    61  50  67 NE5       30.01F
*PORT ARANSAS  CLEAR     65  48  55 NE6       30.01F
*PORT LAVACA   CLEAR     55  54  94 CALM      30.02S
*INGLESIDE     PTCLDY    62  48  60 NE9       30.01F
CORPUS CHRISTI PTCLDY    64  47  53 E5        30.01F
CORPUS NAS     PTCLDY    69  47  45 E7        30.00F
*ROBSTOWN      PTCLDY    61  50  68 CALM      30.01F
ALICE          PTCLDY    52  47  83 CALM      30.01F
KINGSVILLE NAS PTCLDY    56  50  80 SW5       30.01F
COTULLA        CLEAR     59  43  55 SE5       30.01F
*FAITH RANCH   CLEAR     61  39  44 SE7       30.00F
LAREDO         CLEAR     63  48  58 SE7       30.00F
$$

TXZ248>255-240800-
DEEP SOUTH TEXAS

CITY           SKY/WX    TMP DP  RH WIND       PRES   REMARKS
BROWNSVILLE    CLEAR     60  53  77 CALM      30.01F
PORT ISABEL    CLEAR     61  51  70 CALM      30.00F
*SOUTH PADRE   NOT AVBL
HARLINGEN      PTCLDY    57  53  86 E3        29.99F
*HEBBRONVILLE  PTCLDY    55  48  78 CALM      30.01F
MCALLEN        PTCLDY    63  53  70 SE3       30.01F
*WESLACO       PTCLDY    62  52  70 S3        30.00F
FALFURRIAS     PTCLDY    55  47  75 E3        30.01F
EDINBURG       CLEAR     60  51  72 CALM      30.01F
*ZAPATA        CLEAR     57  50  75 CALM      29.99F
$$

TXZ213>215-236>238-242>244-246-247-251-254-255-240800-
CMAN STATIONS

STATION/POSITION TIME  TEMP    WIND        PRES    WAVE
                       AIR SEA DIR/SP/G            HT/PER
                 (UTC) (F)     (DEG/KT/KT) (MB)    (FT/S)
SABINE PASS      0648   64 76  150/  2/  3 1015.9
SEA RIM ST PARK  0700   63      90/  4/  4 1015.0
NORTH JETTY/GLS  0642      73  350/  3/  4   N/A
EAGLE POINT      0648   62 73  290/  4/  5 1014.7
MORGANS POINT    0648   66 76  360/  2/  4 1014.8
MISSION/ARANSAS  0600   68                 1017.0
PORT O`CONNOR    0648   69      60/  8/  9 1015.8
PORT ARANSAS     0700   68 76  360/  8/  9 1016.0
MALAQUITE BEACH  0648   72 77   50/  7/ 10 1016.6
BAFFIN BAY       0648   70 75  360/  6/  7 1016.3
PORT ISABEL      0648   69 78   CALM  /  2 1016.0
$$




USA.gov is the U.S. government's official web portal to all federal, state and local government web resources and services.